{"data":{"norad_id":68606,"epoch":"2026-05-25T04:00:03.998880Z","epoch_age_seconds":56656,"freshness":"FRESH","line1":"1 68606U 26073E   26145.16671295 -.01942689  00000+0 -25085-1 0  9990","line2":"2 68606  97.2851 344.7225 0001608  73.6868  21.6451 15.62187558  5956","mean_motion":15.62187558,"eccentricity":0.0001608,"inclination_deg":97.2851,"raan_deg":344.7225,"arg_perigee_deg":73.6868,"mean_anomaly_deg":21.6451,"bstar":-0.025085,"rev_number":595,"period_min":92.17843226479,"perigee_km":380.25251035426,"apogee_km":382.42635797549,"semimajor_km":6759.4764341649,"source":"CELESTRAK","updated_at":"2026-05-25T13:38:21.966813Z"}}